Location: ???? ?????
(37.9132°N, 22.9869°E)
Time: 06:42:25
(UTC+00:00)

NOSS 3-4 (C) - Pass Details

Date: 04 August 2024
Orbit: 802 x 1409 km, 63.4° (Epoch: 10 September)

Event Time Altitude Azimuth Distance (km) Brightness Sun altitude
Exits shadow 22:02:02 34° 312° (NW) 1,339 4.5 -34.7°
Maximum altitude 22:02:04 34° 313° (NW) 1,340 4.5 -34.7°
Drops below altitude 10° 22:07:22 10° 18° (NNE) 2,569 6.4 -34.8°
Sets 22:10:16 0° 27° (NNE) 3,596 7.2 -34.9°
